Orlando International, FL

5:42 PM EDT on September 24, 2017 (GMT -0400)
Orlando International

Weather History for KMCO - August, 2013

Change the Weather History Date:

Saturday, August 17, 2013

  Actual Average Record
Temperature  
Mean Temperature 85 °F 83 °F  
Max Temperature 93 °F 92 °F 99 °F (1929)
Min Temperature 77 °F 74 °F 66 °F (1938)
Degree Days  
Heating Degree Days 0 0  
Month to date heating degree days 0 0  
Since 1 June heating degree days 0 0  
Since 1 July heating degree days 0 0  
Cooling Degree Days 20 18  
Month to date cooling degree days 328 306  
Year to date cooling degree days 2238 2146  
Since 1 June cooling degree days 1366 1345  
Growing Degree Days 35 (Base 50)    
Moisture  
Dew Point 76 °F    
Average Humidity 78    
Maximum Humidity 100    
Minimum Humidity 56    
Precipitation  
Precipitation 0.30 in 0.22 in 2.13 in (1992)
Month to date precipitation 1.03 4.06  
Year to date precipitation 30.57 33.54  
Sea Level Pressure  
Sea Level Pressure 30.06 in    
Wind  
Wind Speed 6 mph (ESE)    
Max Wind Speed 26 mph    
Max Gust Speed 35 mph    
Visibility 9 miles    
Events Rain , Thunderstorm    
T = Trace of Precipitation, MM = Missing Value Source: NWS Daily Summary

Daily Weather History Graph

Daily Weather History Graph

Search for Another Location

Airport or City:

Trip Planner

Search our weather history database for the weather conditions in past years. The results will help you decide how hot, cold, wet, or windy it might be!

Date:

Astronomy

Aug. 17, 2013 Rise Set
Actual Time 6:56 AM EDT 8:02 PM EDT
Civil Twilight 6:31 AM EDT 8:26 PM EDT
Nautical Twilight 6:02 AM EDT 8:55 PM EDT
Astronomical Twilight 5:32 AM EDT 9:25 PM EDT
Moon 5:08 PM EDT (8/17) 3:06 AM EDT (8/17)
Length of Visible Light 13h 55m
Length of Day
13h 06m
Waxing Gibbous, 84% of the Moon is Illuminated
Aug 17
Waxing Gibbous
Aug 20
Full
Aug 28
Last Quarter
Sep 5
New
Sep 12
First Quarter

Hourly Weather History & Observations

Time (EDT) Temp. Heat Index Dew Point Humidity Pressure Visibility Wind Dir Wind Speed Gust Speed Precip Events Conditions
12:14 AM 77.0 °F - 73.4 °F 89% 30.07 in 10.0 mi North 3.5 mph - N/A   Overcast
12:53 AM 79.0 °F - 75.9 °F 90% 30.06 in 10.0 mi Calm Calm - N/A   Overcast
1:17 AM 78.8 °F - 75.2 °F 89% 30.07 in 10.0 mi Calm Calm - N/A   Overcast
1:53 AM 79.0 °F - 77.0 °F 94% 30.06 in 10.0 mi Calm Calm - 0.00 in Rain Light Rain
2:22 AM 78.8 °F - 77.0 °F 94% 30.06 in 10.0 mi Calm Calm - 0.00 in   Overcast
2:53 AM 79.0 °F - 77.0 °F 94% 30.05 in 10.0 mi Calm Calm - 0.00 in   Overcast
3:53 AM 79.0 °F - 78.1 °F 97% 30.04 in 10.0 mi NNE 3.5 mph - N/A   Mostly Cloudy
4:53 AM 79.0 °F - 77.0 °F 94% 30.03 in 10.0 mi East 4.6 mph - N/A   Mostly Cloudy
5:53 AM 79.0 °F - 78.1 °F 97% 30.03 in 10.0 mi ESE 5.8 mph - N/A   Mostly Cloudy
6:53 AM 78.1 °F - 77.0 °F 96% 30.04 in 10.0 mi ESE 4.6 mph - N/A   Mostly Cloudy
7:53 AM 79.0 °F - 78.1 °F 97% 30.06 in 10.0 mi Variable 3.5 mph - N/A   Mostly Cloudy
8:53 AM 80.1 °F 86.4 °F 78.1 °F 94% 30.07 in 10.0 mi SE 6.9 mph - N/A   Mostly Cloudy
9:16 AM 80.6 °F 88.1 °F 78.8 °F 94% 30.07 in 10.0 mi SSE 6.9 mph - N/A   Mostly Cloudy
9:53 AM 84.0 °F 96.0 °F 79.0 °F 85% 30.08 in 10.0 mi SE 5.8 mph - N/A   Mostly Cloudy
10:53 AM 86.0 °F 98.3 °F 78.1 °F 77% 30.09 in 10.0 mi SSE 6.9 mph - N/A   Mostly Cloudy
11:53 AM 89.1 °F 101.4 °F 77.0 °F 67% 30.08 in 10.0 mi ESE 6.9 mph - N/A   Mostly Cloudy
12:53 PM 89.1 °F 100.2 °F 75.9 °F 65% 30.06 in 10.0 mi SSE 6.9 mph - N/A   Mostly Cloudy
1:53 PM 91.0 °F 100.4 °F 73.9 °F 57% 30.05 in 10.0 mi SE 8.1 mph - N/A   Overcast
2:53 PM 91.9 °F 101.3 °F 73.9 °F 55% 30.02 in 10.0 mi East 10.4 mph - N/A   Overcast
3:53 PM 89.1 °F 99.1 °F 75.0 °F 63% 30.01 in 10.0 mi East 13.8 mph - N/A   Overcast
4:01 PM 89.6 °F 99.8 °F 75.2 °F 62% 30.02 in 10.0 mi ESE 12.7 mph - N/A Thunderstorm Thunderstorm
4:30 PM 89.6 °F 99.8 °F 75.2 °F 62% 30.01 in 10.0 mi East 9.2 mph - 0.00 in   Overcast
4:53 PM 91.0 °F 102.9 °F 75.9 °F 61% 30.01 in 10.0 mi East 13.8 mph - 0.00 in   Overcast
5:30 PM 87.8 °F 97.6 °F 75.2 °F 66% 30.03 in 10.0 mi ESE 17.3 mph 23.0 mph N/A Thunderstorm Thunderstorm
5:53 PM 78.1 °F - 75.0 °F 90% 30.03 in 3.0 mi South 17.3 mph 33.4 mph 0.04 in Rain , Thunderstorm Heavy Thunderstorms and Rain
5:57 PM 78.8 °F - 75.2 °F 89% 30.02 in 0.8 mi SSE 18.4 mph 33.4 mph 0.15 in Rain , Thunderstorm Heavy Thunderstorms and Rain
6:01 PM 78.8 °F - 77.0 °F 94% 30.03 in 2.0 mi SSE 16.1 mph - 0.22 in Rain , Thunderstorm Heavy Thunderstorms and Rain
6:08 PM 78.8 °F - 75.2 °F 89% 30.04 in 5.0 mi SSE 9.2 mph - 0.25 in Rain , Thunderstorm Light Thunderstorms and Rain
6:34 PM 78.8 °F - 78.8 °F 100% 30.06 in 10.0 mi Calm Calm - 0.25 in   Overcast
6:53 PM 78.1 °F - 78.1 °F 100% 30.06 in 10.0 mi ESE 3.5 mph - 0.25 in   Overcast
7:53 PM 79.0 °F - 75.9 °F 90% 30.09 in 10.0 mi Calm Calm - 0.00 in Rain Light Rain
8:53 PM 80.1 °F 85.4 °F 75.9 °F 87% 30.08 in 10.0 mi East 4.6 mph - 0.01 in   Overcast
9:53 PM 80.1 °F 85.8 °F 77.0 °F 90% 30.10 in 10.0 mi East 5.8 mph - N/A   Overcast
10:53 PM 79.0 °F - 77.0 °F 94% 30.11 in 10.0 mi ENE 5.8 mph - N/A   Overcast
11:53 PM 79.0 °F - 77.0 °F 94% 30.10 in 10.0 mi East 6.9 mph - N/A   Mostly Cloudy